Weather in Escaldes

Andorra     42°30′37″N   1°32′24″E
temp.,
°C
wind,
m/s
gust,
m/s
humid.,
%
clouds,
%
prec.,
mm/h
press.,
hPa
HPBL,
m
17 june, thu
thu1723:00+11sse127929 0.0 101731
02:00+10e1274100 0.0 101720
05:00+9nw117289 0.0 101720
08:00+11e126980 0.2 101546
11:00+9e1394100 8.0 1015255
14:00+11sse248937 13.8 1014333
17:00+13sse478887 3.5 1011704
20:00+10s2498100 7.3 1013275
18 june, fri
fri1823:00+10ssw2310098 2.8 1015171
02:00+9ese129865 2.9 101669
05:00+8ese029763 0.0 101652
08:00+10ssw1386100 0.0 1016149
11:00+15ssw345054 0.0 1016766
14:00+19ssw473733 0.0 10161717
17:00+19ssw4637100 0.0 10151686
20:00+16ssw246298 0.0 1016277
19 june, sat
sat1923:00+10se229897 1.0 102035
02:00+10ese1296100 1.3 101931
05:00+9e128971 0.0 101826
08:00+11sse1388100 0.3 1019137
11:00+16s256492 0.4 1016725
14:00+17ssw5156295 1.1 10151949
17:00+16ssw4975100 1.9 10141487
20:00+12sse41593100 9.1 10141612
20 june, sun
sun2023:00+11s359864 2.4 1014225
02:00+9ssw249992 4.9 1014204
05:00+6sw249712 0.3 101492
08:00+8ssw2488100 0.3 1013224
11:00+11sw4665100 0.0 10131192
14:00+14sw5850100 0.0 10121429
17:00+14ssw4951100 0.0 10111550
20:00+11sw346918 0.1 1011783
21 june, mon
mon2123:00+7ssw12898 0.0 101440
02:00+8sw358599 0.0 1012211
05:00+6ssw239653 0.1 101277
08:00+8ssw36830 0.1 1012451
11:00+13ssw46440 0.0 10111030
14:00+16sw46405 0.0 10101593
17:00+16ssw464414 0.0 10101878
20:00+13sw23584 0.0 10121033